NOZ3655 LEVC-EKCH

Flight info

Callsign NOZ3655
Flight time N/A
Altitude 34000
Route LEVC/30 N0460F340 SOPE6A SOPET M445 ASDIR DCT OSLAP DCT ARBEK DCT SINDO DCT RUTIP DCT OKABI DCT TOU DCT ADABI DCT BOKNO DCT DEVRO DCT VANAD DCT PIWIZ DCT VADOM DCT BAMES DCT PODEM DCT BAZOS DCT BELDI DCT VICOT DCT DOSUR DCT TALSA P729 TUDLO TUDL4A EKCH/04L
Aircraft B738/M-LNENV/L

Departure

Time 2026-04-27 14:11
Airport Valencia Airport (LEVC)

Arrival

Time N/A
Airport Copenhagen Kastrup Airport (EKCH)
Time Latitude Longitude Altitude Speed Heading
2026-04-27 13:40 39.49020 -0.47285 208 ft 0 kts 18°
2026-04-27 14:04 39.49011 -0.47289 208 ft 4 kts 18°
2026-04-27 14:04 39.48985 -0.47300 212 ft 4 kts 20°
2026-04-27 14:04 39.48963 -0.47311 209 ft 1 kts 23°
2026-04-27 14:05 39.48962 -0.47312 210 ft 1 kts 23°
2026-04-27 14:08 39.48967 -0.47302 211 ft 2 kts 72°
2026-04-27 14:08 39.48960 -0.47291 216 ft 2 kts 148°
2026-04-27 14:08 39.48928 -0.47269 208 ft 9 kts 151°
2026-04-27 14:08 39.48862 -0.47229 210 ft 12 kts 156°
2026-04-27 14:09 39.48778 -0.47179 208 ft 14 kts 147°
2026-04-27 14:09 39.48718 -0.47070 215 ft 16 kts 116°
2026-04-27 14:09 39.48667 -0.46936 212 ft 17 kts 115°
2026-04-27 14:09 39.48609 -0.46798 208 ft 17 kts 128°
2026-04-27 14:10 39.48514 -0.46722 213 ft 16 kts 186°
2026-04-27 14:10 39.48445 -0.46824 212 ft 16 kts 249°
2026-04-27 14:10 39.48472 -0.46953 211 ft 15 kts 296°
2026-04-27 14:10 39.48559 -0.47183 210 ft 60 kts 296°
2026-04-27 14:11 39.48861 -0.47975 212 ft 134 kts 296°
2026-04-27 14:11 39.49371 -0.49278 366 ft 179 kts 299°
2026-04-27 14:11 39.49935 -0.50723 1188 ft 182 kts 296°
2026-04-27 14:11 39.50505 -0.52205 2070 ft 183 kts 298°
2026-04-27 14:12 39.51093 -0.53692 2831 ft 194 kts 298°
2026-04-27 14:12 39.51709 -0.55339 3417 ft 218 kts 297°
2026-04-27 14:12 39.52569 -0.57075 3728 ft 240 kts 320°
2026-04-27 14:12 39.54104 -0.58102 4046 ft 261 kts 350°
2026-04-27 14:13 39.55965 -0.58138 4644 ft 273 kts 13°
2026-04-27 14:13 39.57639 -0.57066 5717 ft 266 kts 44°
2026-04-27 14:13 39.58957 -0.55373 6704 ft 268 kts 46°
2026-04-27 14:13 39.60266 -0.53611 7504 ft 274 kts 56°
2026-04-27 14:14 39.61079 -0.51388 8434 ft 272 kts 71°
2026-04-27 14:14 39.62116 -0.49347 9263 ft 282 kts 46°
2026-04-27 14:14 39.63615 -0.47662 10133 ft 287 kts 43°
2026-04-27 14:14 39.65189 -0.45940 10549 ft 308 kts 43°
2026-04-27 14:15 39.66908 -0.44020 10733 ft 335 kts 43°
2026-04-27 14:15 39.68728 -0.41938 10902 ft 360 kts 44°
2026-04-27 14:15 39.70637 -0.39701 11266 ft 375 kts 44°
2026-04-27 14:15 39.72586 -0.37387 11903 ft 381 kts 44°
2026-04-27 14:16 39.74539 -0.35046 12653 ft 384 kts 44°
2026-04-27 14:16 39.76507 -0.32669 13300 ft 389 kts 44°
2026-04-27 14:16 39.78501 -0.30245 13925 ft 395 kts 44°
2026-04-27 14:16 39.80525 -0.27777 14519 ft 399 kts 44°
2026-04-27 14:17 39.82561 -0.25291 15126 ft 403 kts 44°
2026-04-27 14:17 39.84610 -0.22783 15729 ft 407 kts 44°
2026-04-27 14:17 39.86682 -0.20243 16316 ft 411 kts 44°
2026-04-27 14:17 39.88774 -0.17679 16876 ft 415 kts 44°
2026-04-27 14:18 39.90860 -0.15119 17434 ft 418 kts 44°
2026-04-27 14:18 39.92987 -0.12506 17983 ft 422 kts 44°
2026-04-27 14:18 39.95133 -0.09869 18506 ft 426 kts 44°
2026-04-27 14:18 39.97326 -0.07171 18988 ft 429 kts 44°
2026-04-27 14:19 39.99477 -0.04522 19460 ft 432 kts 44°
2026-04-27 14:19 40.01671 -0.01818 19934 ft 435 kts 44°
2026-04-27 14:19 40.03883 0.00909 20398 ft 439 kts 44°
2026-04-27 14:19 40.06113 0.03663 20865 ft 442 kts 44°
2026-04-27 14:20 40.08354 0.06433 21372 ft 444 kts 44°
2026-04-27 14:20 40.10607 0.09220 21796 ft 447 kts 43°
2026-04-27 14:20 40.12878 0.12033 22209 ft 451 kts 43°
2026-04-27 14:20 40.15190 0.14898 22648 ft 453 kts 43°
2026-04-27 14:21 40.17455 0.17708 23069 ft 456 kts 43°
2026-04-27 14:21 40.19762 0.20574 23449 ft 459 kts 43°
2026-04-27 14:21 40.22088 0.23465 23832 ft 462 kts 43°
2026-04-27 14:21 40.24421 0.26369 24192 ft 463 kts 43°
2026-04-27 14:22 40.26792 0.29323 24577 ft 465 kts 43°
2026-04-27 14:22 40.29176 0.32199 24909 ft 466 kts 38°
2026-04-27 14:22 40.31879 0.34649 25245 ft 467 kts 28°
2026-04-27 14:22 40.34791 0.36528 25594 ft 467 kts 20°
2026-04-27 14:23 40.37888 0.37835 25921 ft 467 kts 14°
2026-04-27 14:23 40.40994 0.38984 26226 ft 469 kts 14°
2026-04-27 14:23 40.44144 0.40123 26543 ft 470 kts 14°
2026-04-27 14:23 40.47298 0.41271 26942 ft 470 kts 14°
2026-04-27 14:24 40.50440 0.42435 27419 ft 467 kts 14°
2026-04-27 14:24 40.53563 0.43609 27928 ft 465 kts 14°
2026-04-27 14:24 40.56661 0.44787 28406 ft 463 kts 14°
2026-04-27 14:24 40.59753 0.45970 28830 ft 463 kts 14°
2026-04-27 14:25 40.62847 0.47158 29263 ft 462 kts 14°
2026-04-27 14:25 40.65933 0.48343 29744 ft 460 kts 14°
2026-04-27 14:25 40.68996 0.49521 30230 ft 458 kts 14°
2026-04-27 14:25 40.72064 0.50702 30583 ft 458 kts 14°
2026-04-27 14:26 40.75081 0.51862 30899 ft 458 kts 14°
2026-04-27 14:26 40.78132 0.53036 31218 ft 458 kts 14°
2026-04-27 14:26 40.81209 0.54222 31592 ft 457 kts 14°
2026-04-27 14:26 40.84233 0.55389 31961 ft 456 kts 14°
2026-04-27 14:27 40.87283 0.56567 32315 ft 456 kts 14°
2026-04-27 14:27 40.90326 0.57743 32657 ft 455 kts 14°
2026-04-27 14:27 40.93363 0.58919 33020 ft 454 kts 14°
2026-04-27 14:27 40.96398 0.60094 33363 ft 453 kts 14°
2026-04-27 14:28 40.99426 0.61268 33678 ft 453 kts 14°
2026-04-27 14:28 41.02425 0.62431 33987 ft 453 kts 15°
2026-04-27 14:28 41.05474 0.63615 34079 ft 455 kts 14°
2026-04-27 14:29 41.11505 0.66110 34077 ft 455 kts 21°
2026-04-27 14:29 41.16881 0.70373 34084 ft 455 kts 38°
2026-04-27 14:30 41.21683 0.75833 34084 ft 453 kts 40°
2026-04-27 14:30 41.26450 0.81314 34086 ft 453 kts 39°
2026-04-27 14:31 41.31248 0.86759 34089 ft 453 kts 39°
2026-04-27 14:31 41.36053 0.92184 34086 ft 453 kts 39°
2026-04-27 14:32 41.40856 0.97614 34088 ft 453 kts 40°
2026-04-27 14:32 41.45635 1.03032 34091 ft 453 kts 39°
2026-04-27 14:33 41.50444 1.08493 34085 ft 453 kts 39°
2026-04-27 14:33 41.54744 1.12469 34086 ft 452 kts 26°
2026-04-27 14:34 41.60659 1.15228 34097 ft 450 kts 13°
2026-04-27 14:34 41.66736 1.17116 34081 ft 450 kts 12°
2026-04-27 14:35 41.72837 1.19020 34083 ft 450 kts 13°
2026-04-27 14:35 41.78933 1.20990 34083 ft 450 kts 13°
2026-04-27 14:36 41.85017 1.22983 34076 ft 450 kts 13°
2026-04-27 14:36 41.91108 1.24984 34076 ft 450 kts 13°
2026-04-27 14:37 41.97203 1.26989 34073 ft 450 kts 13°
2026-04-27 14:37 42.03291 1.28994 34078 ft 450 kts 13°
2026-04-27 14:38 42.09335 1.30989 34083 ft 451 kts 13°
2026-04-27 14:38 42.15443 1.33006 34093 ft 451 kts 13°
2026-04-27 14:39 42.21551 1.35016 34127 ft 452 kts 13°
2026-04-27 14:39 42.27667 1.37031 34105 ft 453 kts 13°
2026-04-27 14:40 42.33793 1.39055 34098 ft 453 kts 13°
2026-04-27 14:40 42.39924 1.41085 34109 ft 453 kts 13°
2026-04-27 14:41 42.46056 1.43119 34112 ft 454 kts 13°
2026-04-27 14:41 42.52198 1.45186 34124 ft 455 kts 13°
2026-04-27 14:42 42.58304 1.47272 34128 ft 455 kts 12°
2026-04-27 14:42 42.64571 1.48067 34134 ft 453 kts 354°
2026-04-27 14:43 42.70829 1.47063 34150 ft 452 kts 351°
2026-04-27 14:43 42.77082 1.45958 34138 ft 453 kts 351°
2026-04-27 14:44 42.83346 1.44901 34133 ft 454 kts 352°
2026-04-27 14:44 42.89618 1.43878 34136 ft 454 kts 352°
2026-04-27 14:45 42.95897 1.42862 34129 ft 455 kts 352°
2026-04-27 14:45 43.02144 1.41849 34124 ft 455 kts 351°
2026-04-27 14:46 43.08431 1.40826 34112 ft 455 kts 351°
2026-04-27 14:46 43.14767 1.39792 34106 ft 456 kts 351°
2026-04-27 14:47 43.21060 1.38762 34109 ft 455 kts 351°
2026-04-27 14:47 43.27320 1.37737 34105 ft 455 kts 351°
2026-04-27 14:48 43.33614 1.36703 34093 ft 455 kts 351°
2026-04-27 14:48 43.41985 1.35325 34086 ft 455 kts 351°
2026-04-27 14:49 43.48852 1.34192 34084 ft 454 kts 351°
2026-04-27 14:49 43.55122 1.33154 34072 ft 453 kts 351°
2026-04-27 14:50 43.61297 1.32131 34073 ft 452 kts 351°
2026-04-27 14:50 43.67547 1.31092 34073 ft 451 kts 351°
2026-04-27 14:51 43.73738 1.29707 34086 ft 450 kts 347°
2026-04-27 14:51 43.78893 1.28325 34080 ft 450 kts 346°
2026-04-27 14:52 43.86046 1.26398 34087 ft 450 kts 347°
2026-04-27 14:52 43.92177 1.24787 34087 ft 451 kts 347°
2026-04-27 14:53 43.98340 1.23185 34096 ft 451 kts 347°
2026-04-27 14:53 44.04558 1.21570 34091 ft 452 kts 347°
2026-04-27 14:54 44.10768 1.19954 34090 ft 452 kts 347°
2026-04-27 14:54 44.16963 1.18337 34095 ft 453 kts 347°
2026-04-27 14:55 44.23165 1.16714 34095 ft 453 kts 347°
2026-04-27 14:55 44.29378 1.15085 34090 ft 454 kts 346°
2026-04-27 14:56 44.35584 1.13455 34092 ft 453 kts 346°
2026-04-27 14:56 44.41783 1.11822 34087 ft 453 kts 346°
2026-04-27 14:57 44.47976 1.10187 34091 ft 453 kts 346°
2026-04-27 14:57 44.54172 1.08549 34078 ft 453 kts 346°
2026-04-27 14:58 44.60365 1.06907 34086 ft 452 kts 346°
2026-04-27 14:58 44.66563 1.05261 34087 ft 452 kts 346°
2026-04-27 14:59 44.72756 1.03612 34085 ft 452 kts 346°
2026-04-27 14:59 44.78956 1.01958 34086 ft 452 kts 346°
2026-04-27 15:00 44.85194 1.00290 34086 ft 453 kts 346°
2026-04-27 15:00 44.91382 0.98632 34088 ft 453 kts 346°
2026-04-27 15:01 44.97606 0.96960 34077 ft 453 kts 346°
2026-04-27 15:01 45.03767 0.95302 34078 ft 454 kts 346°
2026-04-27 15:02 45.09980 0.93626 34071 ft 455 kts 346°
2026-04-27 15:02 45.16197 0.91945 34076 ft 455 kts 346°
2026-04-27 15:03 45.22415 0.90260 34082 ft 456 kts 346°
2026-04-27 15:03 45.28657 0.88565 34074 ft 456 kts 346°
2026-04-27 15:04 45.34894 0.86868 34086 ft 457 kts 346°
2026-04-27 15:04 45.41149 0.85162 34082 ft 457 kts 345°
2026-04-27 15:05 45.47389 0.83456 34096 ft 457 kts 345°
2026-04-27 15:05 45.53636 0.81744 34103 ft 457 kts 345°
2026-04-27 15:06 45.59889 0.80027 34100 ft 457 kts 345°
2026-04-27 15:06 45.66132 0.78309 34104 ft 457 kts 345°
2026-04-27 15:07 45.71337 0.76873 34112 ft 457 kts 345°
2026-04-27 15:07 45.77597 0.75143 34109 ft 457 kts 345°
2026-04-27 15:08 45.83819 0.73419 34108 ft 457 kts 345°
2026-04-27 15:08 45.90061 0.71686 34118 ft 456 kts 345°
2026-04-27 15:09 45.96295 0.69951 34121 ft 456 kts 345°
2026-04-27 15:09 46.02493 0.68222 34126 ft 457 kts 345°
2026-04-27 15:10 46.08748 0.66473 34117 ft 457 kts 344°
2026-04-27 15:10 46.14987 0.64725 34127 ft 457 kts 344°
2026-04-27 15:11 46.21249 0.62966 34127 ft 458 kts 344°
2026-04-27 15:11 46.27474 0.61213 34125 ft 458 kts 344°
2026-04-27 15:12 46.33732 0.59447 34132 ft 459 kts 344°
2026-04-27 15:12 46.40013 0.57671 34130 ft 459 kts 343°
2026-04-27 15:13 46.46292 0.55890 34132 ft 459 kts 343°
2026-04-27 15:13 46.52539 0.54122 34127 ft 460 kts 345°
2026-04-27 15:14 46.59015 0.53930 34132 ft 473 kts
2026-04-27 15:14 46.65496 0.55977 34133 ft 477 kts
2026-04-27 15:15 46.71912 0.58247 34135 ft 477 kts
2026-04-27 15:15 46.78380 0.60448 34131 ft 477 kts
2026-04-27 15:16 46.84866 0.62599 34131 ft 478 kts
2026-04-27 15:16 46.91374 0.64754 34119 ft 479 kts
2026-04-27 15:17 46.97857 0.66913 34127 ft 479 kts
2026-04-27 15:17 47.04359 0.69061 34135 ft 479 kts
2026-04-27 15:18 47.10927 0.70019 34121 ft 473 kts 358°
2026-04-27 15:18 47.17508 0.70590 34131 ft 473 kts 358°
2026-04-27 15:19 47.24086 0.71217 34135 ft 474 kts 358°
2026-04-27 15:19 47.30680 0.71903 34141 ft 474 kts 358°
2026-04-27 15:20 47.37255 0.72599 34128 ft 475 kts 358°
2026-04-27 15:20 47.43841 0.73293 34141 ft 474 kts 358°
2026-04-27 15:21 47.50393 0.74272 34132 ft 480 kts
2026-04-27 15:21 47.56834 0.77229 34144 ft 485 kts 15°
2026-04-27 15:22 47.63238 0.80540 34137 ft 484 kts 14°
2026-04-27 15:22 47.69581 0.83725 34140 ft 483 kts 14°
2026-04-27 15:23 47.75971 0.86875 34142 ft 483 kts 14°
2026-04-27 15:23 47.82336 0.90021 34149 ft 482 kts 14°
2026-04-27 15:24 47.88687 0.93199 34146 ft 481 kts 14°
2026-04-27 15:24 47.95012 0.96406 34153 ft 479 kts 14°
2026-04-27 15:25 48.01273 0.99587 34155 ft 478 kts 14°
2026-04-27 15:25 48.07561 1.02784 34155 ft 476 kts 14°
2026-04-27 15:26 48.13825 1.05976 34153 ft 475 kts 14°
2026-04-27 15:26 48.20078 1.09170 34155 ft 474 kts 14°
2026-04-27 15:27 48.26319 1.12356 34166 ft 473 kts 14°
2026-04-27 15:27 48.32561 1.15535 34164 ft 473 kts 14°
2026-04-27 15:28 48.38799 1.18723 34155 ft 473 kts 15°
2026-04-27 15:28 48.45043 1.21924 34157 ft 473 kts 15°
2026-04-27 15:29 48.51240 1.25110 34159 ft 473 kts 15°
2026-04-27 15:29 48.57472 1.28310 34152 ft 473 kts 14°
2026-04-27 15:30 48.63720 1.31455 34163 ft 473 kts 14°
2026-04-27 15:30 48.69968 1.34596 34163 ft 473 kts 14°
2026-04-27 15:31 48.76226 1.37761 34162 ft 473 kts 14°
2026-04-27 15:31 48.82477 1.40935 34164 ft 473 kts 14°
2026-04-27 15:32 48.88710 1.44110 34172 ft 472 kts 14°
2026-04-27 15:32 48.94953 1.47296 34176 ft 472 kts 14°
2026-04-27 15:33 49.01245 1.49659 34175 ft 466 kts
2026-04-27 15:33 49.07654 1.51040 34173 ft 464 kts
2026-04-27 15:34 49.14053 1.52462 34183 ft 464 kts
2026-04-27 15:34 49.20442 1.53964 34179 ft 464 kts
2026-04-27 15:35 49.26621 1.57038 34188 ft 475 kts 25°
2026-04-27 15:35 49.29397 1.59843 34179 ft 480 kts 37°
2026-04-27 15:35 49.31859 1.63301 34194 ft 481 kts 41°
2026-04-27 15:36 49.36628 1.70510 34184 ft 481 kts 41°
2026-04-27 15:36 49.41399 1.77643 34174 ft 481 kts 41°
2026-04-27 15:37 49.46239 1.84755 34180 ft 481 kts 40°
2026-04-27 15:37 49.51068 1.91855 34182 ft 480 kts 40°
2026-04-27 15:38 49.55894 1.98983 34187 ft 480 kts 40°
2026-04-27 15:38 49.60713 2.06118 34192 ft 480 kts 40°
2026-04-27 15:39 49.65515 2.13247 34190 ft 481 kts 40°
2026-04-27 15:39 49.70339 2.20430 34190 ft 481 kts 40°
2026-04-27 15:40 49.75147 2.27611 34178 ft 481 kts 40°
2026-04-27 15:40 49.79931 2.34778 34185 ft 481 kts 40°
2026-04-27 15:41 49.84742 2.42006 34188 ft 481 kts 40°
2026-04-27 15:41 49.89549 2.49249 34186 ft 482 kts 40°
2026-04-27 15:42 49.94359 2.56499 34192 ft 481 kts 38°
2026-04-27 15:42 49.99716 2.62482 34195 ft 472 kts 25°
2026-04-27 15:43 50.05392 2.67637 34189 ft 472 kts 25°
2026-04-27 15:43 50.11065 2.72794 34183 ft 472 kts 25°
2026-04-27 15:44 50.16725 2.78033 34190 ft 473 kts 25°
2026-04-27 15:44 50.22370 2.83315 34196 ft 473 kts 25°
2026-04-27 15:45 50.27988 2.88594 34202 ft 474 kts 25°
2026-04-27 15:45 50.33645 2.93922 34191 ft 474 kts 25°
2026-04-27 15:46 50.39314 2.99274 34192 ft 475 kts 25°
2026-04-27 15:46 50.44985 3.04642 34192 ft 476 kts 25°
2026-04-27 15:47 50.50668 3.10036 34185 ft 477 kts 25°
2026-04-27 15:47 50.55402 3.14541 34187 ft 478 kts 25°
2026-04-27 15:48 50.61101 3.19981 34193 ft 479 kts 25°
2026-04-27 15:49 50.69658 3.28176 34200 ft 481 kts 25°
2026-04-27 15:49 50.75385 3.33680 34199 ft 482 kts 26°
2026-04-27 15:50 50.81073 3.39163 34206 ft 482 kts 26°
2026-04-27 15:50 50.86801 3.44702 34211 ft 482 kts 26°
2026-04-27 15:51 50.92528 3.50254 34206 ft 482 kts 26°
2026-04-27 15:51 50.98253 3.55822 34211 ft 482 kts 26°
2026-04-27 15:52 51.03982 3.61409 34214 ft 482 kts 26°
2026-04-27 15:52 51.09680 3.66984 34223 ft 481 kts 26°
2026-04-27 15:53 51.15374 3.72569 34222 ft 481 kts 26°
2026-04-27 15:53 51.21029 3.78133 34230 ft 480 kts 26°
2026-04-27 15:54 51.26750 3.83779 34215 ft 480 kts 26°
2026-04-27 15:54 51.32413 3.89385 34231 ft 479 kts 27°
2026-04-27 15:55 51.38068 3.94999 34230 ft 478 kts 27°
2026-04-27 15:55 51.43684 4.00589 34222 ft 477 kts 27°
2026-04-27 15:56 51.49273 4.06366 34218 ft 480 kts 33°
2026-04-27 15:56 51.54409 4.13226 34226 ft 481 kts 37°
2026-04-27 15:57 51.59199 4.20007 34283 ft 476 kts 37°
2026-04-27 15:57 51.64236 4.27061 34231 ft 484 kts 37°
2026-04-27 15:58 51.69340 4.34134 34228 ft 485 kts 37°
2026-04-27 15:58 51.74471 4.41232 34241 ft 485 kts 37°
2026-04-27 15:59 51.79623 4.48378 34241 ft 485 kts 37°
2026-04-27 15:59 51.84741 4.55504 34242 ft 485 kts 37°
2026-04-27 16:00 51.89815 4.62593 34238 ft 484 kts 37°
2026-04-27 16:00 51.94904 4.69725 34240 ft 483 kts 37°
2026-04-27 16:01 51.99529 4.76227 34237 ft 483 kts 37°
2026-04-27 16:01 52.04560 4.83319 34242 ft 482 kts 37°
2026-04-27 16:02 52.09619 4.90473 34245 ft 481 kts 37°
2026-04-27 16:02 52.14664 4.97630 34251 ft 482 kts 37°
2026-04-27 16:03 52.19738 5.04848 34252 ft 484 kts 37°
2026-04-27 16:03 52.24817 5.12098 34255 ft 486 kts 37°
2026-04-27 16:04 52.29884 5.19356 34249 ft 487 kts 38°
2026-04-27 16:04 52.34994 5.26697 34241 ft 486 kts 38°
2026-04-27 16:05 52.40078 5.34026 34241 ft 485 kts 38°
2026-04-27 16:05 52.45134 5.41337 34241 ft 484 kts 38°
2026-04-27 16:06 52.50176 5.48651 34239 ft 482 kts 38°
2026-04-27 16:06 52.55156 5.55897 34241 ft 481 kts 38°
2026-04-27 16:07 52.60186 5.63240 34249 ft 480 kts 38°
2026-04-27 16:07 52.65162 5.70525 34253 ft 479 kts 38°
2026-04-27 16:08 52.70132 5.77826 34250 ft 478 kts 38°
2026-04-27 16:08 52.75091 5.85133 34264 ft 477 kts 38°
2026-04-27 16:09 52.80017 5.92416 34265 ft 477 kts 38°
2026-04-27 16:09 52.87426 6.03412 34277 ft 477 kts 38°
2026-04-27 16:10 52.97291 6.18136 34264 ft 477 kts 38°
2026-04-27 16:11 53.04641 6.29169 34269 ft 477 kts 38°
2026-04-27 16:12 53.12022 6.40301 34262 ft 476 kts 38°
2026-04-27 16:13 53.19376 6.51447 34266 ft 476 kts 38°
2026-04-27 16:13 53.26712 6.62618 34267 ft 476 kts 39°
2026-04-27 16:14 53.36433 6.77507 34285 ft 474 kts 39°
2026-04-27 16:15 53.46142 6.92473 34299 ft 473 kts 39°
2026-04-27 16:16 53.55802 7.07461 34295 ft 472 kts 39°
2026-04-27 16:17 53.65440 7.22511 34297 ft 471 kts 39°
2026-04-27 16:18 53.75025 7.37578 34314 ft 470 kts 39°
2026-04-27 16:19 53.79799 7.45119 34309 ft 469 kts 39°
2026-04-27 16:20 53.89329 7.60246 34312 ft 468 kts 39°
2026-04-27 16:21 53.96449 7.71613 34311 ft 468 kts 39°
2026-04-27 16:22 54.05919 7.86819 34312 ft 467 kts 39°
2026-04-27 16:22 54.13000 7.98255 34311 ft 467 kts 40°
2026-04-27 16:23 54.20065 8.09721 34312 ft 466 kts 40°
2026-04-27 16:24 54.23969 8.16082 34304 ft 466 kts 40°
2026-04-27 16:25 54.33369 8.31470 34303 ft 465 kts 40°
2026-04-27 16:26 54.42753 8.46933 34301 ft 465 kts 40°
2026-04-27 16:27 54.52088 8.62419 34304 ft 464 kts 40°
2026-04-27 16:28 54.63670 8.81779 34299 ft 463 kts 40°
2026-04-27 16:29 54.75171 9.01164 34303 ft 462 kts 40°
2026-04-27 16:30 54.84351 9.16753 34307 ft 461 kts 41°
2026-04-27 16:31 54.95112 9.37501 34311 ft 462 kts 45°
2026-04-27 16:32 55.01455 9.50147 34316 ft 462 kts 45°
2026-04-27 16:33 55.07806 9.62799 34315 ft 461 kts 45°
2026-04-27 16:33 55.11340 9.72201 34318 ft 467 kts 63°
2026-04-27 16:34 55.12467 9.77483 34065 ft 461 kts 69°
2026-04-27 16:34 55.13411 9.82813 33366 ft 460 kts 71°
2026-04-27 16:34 55.14324 9.88214 32481 ft 464 kts 71°
2026-04-27 16:34 55.15243 9.93664 31523 ft 470 kts 71°
2026-04-27 16:35 55.16187 9.99179 30600 ft 475 kts 70°
2026-04-27 16:35 55.17150 10.04721 29583 ft 478 kts 70°
2026-04-27 16:35 55.19110 10.15876 27543 ft 481 kts 70°
2026-04-27 16:36 55.20098 10.21497 26498 ft 483 kts 70°
2026-04-27 16:36 55.21082 10.27108 25538 ft 483 kts 70°
2026-04-27 16:36 55.22059 10.32705 24846 ft 476 kts 70°
2026-04-27 16:36 55.23016 10.38212 24220 ft 469 kts 70°
2026-04-27 16:37 55.23959 10.43659 23489 ft 463 kts 70°
2026-04-27 16:37 55.24888 10.49030 22704 ft 458 kts 70°
2026-04-27 16:37 55.25791 10.54265 21971 ft 453 kts 70°
2026-04-27 16:37 55.26695 10.59519 21279 ft 447 kts 70°
2026-04-27 16:38 55.27585 10.64713 20597 ft 441 kts 70°
2026-04-27 16:38 55.28463 10.69839 19907 ft 437 kts 70°
2026-04-27 16:38 55.29334 10.74923 19230 ft 432 kts 70°
2026-04-27 16:38 55.30195 10.79960 18566 ft 428 kts 70°
2026-04-27 16:39 55.31045 10.84943 17839 ft 423 kts 70°
2026-04-27 16:39 55.31882 10.89864 17148 ft 418 kts 70°
2026-04-27 16:39 55.32706 10.94731 16472 ft 413 kts 70°
2026-04-27 16:39 55.33518 10.99550 15809 ft 409 kts 70°
2026-04-27 16:40 55.34314 11.04330 15158 ft 405 kts 70°
2026-04-27 16:40 55.35096 11.09047 14518 ft 401 kts 70°
2026-04-27 16:40 55.35881 11.13793 13862 ft 397 kts 70°
2026-04-27 16:40 55.36646 11.18426 13189 ft 393 kts 70°
2026-04-27 16:41 55.37401 11.23011 12603 ft 388 kts 70°
2026-04-27 16:41 55.38152 11.27576 12407 ft 391 kts 70°
2026-04-27 16:41 55.38905 11.32163 12322 ft 389 kts 71°
2026-04-27 16:41 55.39507 11.36782 12298 ft 389 kts 77°
2026-04-27 16:42 55.39912 11.41514 12309 ft 390 kts 79°
2026-04-27 16:42 55.40272 11.46245 12294 ft 391 kts 79°
2026-04-27 16:42 55.40631 11.51051 12303 ft 391 kts 79°
2026-04-27 16:42 55.40992 11.55793 12294 ft 390 kts 79°
2026-04-27 16:43 55.41360 11.60511 12295 ft 390 kts 79°
2026-04-27 16:43 55.41737 11.65254 12299 ft 390 kts 79°
2026-04-27 16:43 55.42111 11.69956 11990 ft 382 kts 78°
2026-04-27 16:43 55.42483 11.74597 11435 ft 379 kts 78°
2026-04-27 16:44 55.42849 11.79173 10748 ft 378 kts 79°
2026-04-27 16:44 55.43214 11.83739 10161 ft 369 kts 79°
2026-04-27 16:44 55.43552 11.88053 9981 ft 342 kts 78°
2026-04-27 16:44 55.43862 11.92026 9819 ft 320 kts 78°
2026-04-27 16:45 55.44156 11.95786 9668 ft 301 kts 78°
2026-04-27 16:45 55.44400 11.98902 9392 ft 291 kts 78°
2026-04-27 16:45 55.44677 12.02414 8868 ft 289 kts 78°
2026-04-27 16:45 55.44957 12.05962 8332 ft 287 kts 79°
2026-04-27 16:46 55.45224 12.09376 7851 ft 284 kts 79°
2026-04-27 16:46 55.45491 12.12820 7365 ft 282 kts 79°
2026-04-27 16:46 55.45754 12.16222 6864 ft 280 kts 79°
2026-04-27 16:46 55.46016 12.19625 6385 ft 277 kts 80°
2026-04-27 16:47 55.46273 12.22987 5876 ft 275 kts 80°
2026-04-27 16:47 55.46529 12.26350 5367 ft 273 kts 81°
2026-04-27 16:47 55.46782 12.29666 4850 ft 272 kts 81°
2026-04-27 16:47 55.47032 12.32965 4347 ft 270 kts 81°
2026-04-27 16:48 55.47195 12.35134 4021 ft 268 kts 81°
2026-04-27 16:48 55.47435 12.38341 3758 ft 257 kts 81°
2026-04-27 16:48 55.47666 12.41394 3635 ft 242 kts 78°
2026-04-27 16:49 55.49559 12.45422 3385 ft 199 kts 33°
2026-04-27 16:49 55.50593 12.46928 3265 ft 185 kts 38°
2026-04-27 16:49 55.51515 12.48373 3142 ft 170 kts 38°
2026-04-27 16:49 55.52459 12.49616 2655 ft 176 kts 17°
2026-04-27 16:50 55.53662 12.49624 2240 ft 174 kts 339°
2026-04-27 16:50 55.54792 12.48817 2039 ft 177 kts 335°
2026-04-27 16:50 55.55935 12.47941 2013 ft 179 kts 335°
2026-04-27 16:50 55.57075 12.47065 2002 ft 176 kts 335°
2026-04-27 16:51 55.58195 12.46193 1995 ft 175 kts 330°
2026-04-27 16:51 55.59029 12.44628 2012 ft 173 kts 297°